Theta_e
319 319 319 319 320 321 322 323 323 324 326 325 324 324 324 325 324 324 323 324 323 322 322 322 323 325 327 328 329 327 324 323 318 322 328 328 327 326 325 323 319 314 313 312
321 321 321 321 321 320 320 321 322 324 324 323 324 324 324 325 324 323 323 323 323 322 322 322 323 325 327 329 329 328 326 318 318 326 327 326 325 325 324 322 319 317 313 311
321 322 321 320 320 320 320 320 321 322 323 323 322 323 324 324 324 323 323 322 322 323 322 322 323 326 326 328 330 329 328 321 317 327 325 319 318 319 325 324 322 320 314 312
321 321 320 320 319 321 321 320 320 320 321 323 323 323 323 324 325 324 323 323 322 323 322 322 323 324 326 327 329 329 329 325 318 319 325 323 325 324 325 323 321 318 318 315
321 321 321 321 320 320 321 322 322 321 322 323 322 323 324 325 325 325 325 323 322 322 322 322 323 323 325 327 328 328 329 329 325 319 322 322 320 324 324 323 321 319 318 318
320 321 321 321 321 321 321 321 322 323 323 324 324 324 324 325 326 326 326 325 324 324 323 323 323 323 325 326 327 327 329 330 328 320 319 319 322 320 320 321 318 320 319 317
321 321 321 320 320 320 320 322 324 323 323 325 324 324 325 326 326 326 326 325 324 324 324 324 323 323 324 326 326 326 328 330 328 319 319 319 318 318 318 318 321 320 319 317
322 322 322 321 320 321 322 322 324 328 326 325 324 324 326 326 325 323 324 324 324 325 324 325 326 322 322 325 326 326 327 329 328 323 319 319 319 319 322 321 320 318 317 315
323 323 322 323 322 321 322 323 323 325 326 327 326 325 325 326 325 324 324 324 324 325 326 325 325 326 325 324 326 326 325 327 327 326 323 322 321 319 320 318 317 317 316 314
324 325 322 322 320 321 321 322 324 324 326 327 325 326 327 326 326 325 325 324 324 324 324 325 325 326 326 325 326 326 325 325 326 327 326 324 323 321 319 318 317 316 314 311
323 324 324 322 321 320 320 320 322 324 324 324 325 325 326 326 325 325 325 324 324 322 323 324 325 325 325 325 325 325 325 324 326 326 325 324 323 322 320 319 317 316 314 311
321 324 326 323 322 322 322 322 322 329 324 324 324 324 324 325 324 324 325 323 322 322 322 323 324 324 324 324 324 325 325 325 325 325 324 323 323 322 321 319 318 316 313 311
316 322 324 323 322 322 323 322 323 325 325 324 328 324 324 324 324 323 324 324 323 323 322 323 323 324 324 324 324 324 325 325 324 323 322 322 322 321 320 319 317 315 312 313
309 315 319 322 320 321 323 323 322 324 328 326 326 324 323 324 324 323 323 322 323 323 323 322 323 323 323 324 324 323 323 323 323 323 322 322 321 321 319 318 316 314 314 314
309 312 313 314 314 316 317 319 321 322 324 325 323 323 323 323 324 324 323 323 323 323 323 323 323 323 323 323 323 323 323 323 323 322 321 321 320 319 317 315 314 313 313 314
308 309 310 311 312 313 314 315 316 317 320 322 322 322 322 322 321 322 322 322 322 322 322 322 323 323 323 323 323 324 324 324 323 322 321 320 318 317 315 314 313 312 312 312
305 307 308 312 311 310 312 313 314 314 315 316 318 319 320 320 320 319 319 320 320 321 321 321 322 323 323 322 322 324 324 324 322 321 320 318 316 315 313 312 312 311 311 310
304 305 307 309 307 310 311 312 313 314 314 315 315 316 316 315 315 315 316 316 317 318 318 319 321 321 321 321 322 325 324 323 322 320 318 316 314 313 312 311 311 311 310 308
305 305 307 308 310 307 307 308 310 311 311 311 311 312 311 312 312 313 313 313 314 316 318 318 319 321 321 321 325 325 323 321 319 317 316 314 312 311 310 310 310 309 307 307
304 305 308 306 307 308 307 307 306 308 310 309 309 310 311 311 314 314 313 314 314 319 321 322 322 320 319 324 325 323 321 319 317 316 313 312 310 310 309 307 306 307 307 306
303 304 307 308 308 306 306 307 306 308 309 308 309 309 310 312 311 309 310 311 312 316 317 319 319 322 322 324 323 320 319 317 315 313 311 310 310 309 305 305 306 305 305 305
304 304 306 307 307 307 306 306 306 308 308 308 310 310 311 310 312 312 313 313 314 314 314 318 319 320 323 322 319 318 316 314 312 310 309 309 307 306 305 305 304 304 304 304
304 304 306 305 305 305 303 304 304 306 307 308 307 309 310 310 310 311 312 312 313 314 315 317 321 321 319 317 316 315 314 311 309 309 308 305 306 306 306 305 304 304 305 305
304 303 307 305 304 304 302 303 303 304 306 306 307 306 307 309 309 310 311 311 312 314 317 320 319 319 316 315 312 312 310 308 308 306 306 306 306 306 305 304 304 304 304 303
305 304 305 304 304 303 303 303 303 304 305 305 306 307 308 307 308 310 309 311 311 314 317 318 318 316 315 313 311 309 308 307 307 305 306 306 306 304 304 304 304 303 303 302
303 304 306 308 303 303 303 303 304 304 303 304 305 306 307 307 308 309 308 310 311 314 315 317 316 315 313 310 309 307 306 304 305 305 304 304 303 303 303 303 303 303 302 303
Wind_Speed
19 14 17 21 20 21 21 20 21 20 17 19 20 20 21 22 17 17 23 23 25 24 23 24 24 23 23 23 22 22 21 22 19 12 7 6 4 5 3 4 10 10 10 12
17 16 18 19 18 20 22 21 20 17 17 8 14 20 21 21 21 25 24 25 26 26 26 28 28 27 27 26 24 24 23 24 22 13 11 10 9 5 6 6 11 13 12 15
19 14 7 16 10 15 17 20 20 18 14 10 15 21 22 20 24 25 26 25 27 28 29 29 30 30 29 28 28 27 27 26 25 15 15 13 10 7 5 5 7 10 18 16
17 19 9 14 17 17 18 19 17 19 17 14 19 18 24 24 24 23 24 25 26 27 29 30 31 32 32 31 28 26 27 27 27 23 13 14 10 8 8 10 8 17 14 17
17 16 13 16 17 15 16 15 17 18 15 18 21 14 15 12 26 23 22 28 27 27 30 31 31 33 32 30 29 27 27 26 24 24 18 16 13 9 7 8 13 16 14 14
18 15 11 15 17 13 8 9 12 13 15 16 24 21 15 15 20 18 17 24 28 29 30 31 31 32 34 31 30 27 28 27 25 26 23 21 18 17 13 12 17 12 12 14
20 23 16 15 12 10 13 12 10 13 14 18 21 21 16 3 5 5 12 11 8 12 17 19 24 26 32 31 32 31 29 26 25 26 24 23 22 20 18 18 12 15 15 15
18 20 24 18 21 17 20 18 11 16 14 17 22 17 16 11 14 10 7 9 6 10 15 18 19 23 30 31 31 31 29 25 24 24 24 23 21 16 13 14 16 19 20 20
17 23 14 21 20 19 22 14 20 21 19 13 10 14 9 4 5 6 10 10 9 5 5 10 14 19 23 29 30 30 28 24 24 23 21 20 19 19 18 21 24 21 22 21
11 18 19 14 12 17 19 17 13 9 16 20 17 19 10 19 16 16 16 11 8 4 3 4 8 12 18 22 25 27 27 24 25 21 19 18 18 19 21 23 24 24 27 28
12 15 19 22 15 20 16 16 15 13 15 16 15 16 19 14 11 10 10 13 7 3 3 5 7 11 16 20 23 25 25 24 22 21 19 19 18 18 20 22 23 25 27 28
8 10 18 27 25 19 19 23 22 13 21 15 15 15 9 5 3 3 11 8 4 3 4 6 9 12 16 18 21 22 23 23 22 20 19 19 18 17 19 21 23 25 28 27
13 6 14 20 18 21 16 20 18 17 15 23 17 17 18 11 11 9 11 6 10 7 5 7 10 12 14 17 19 21 22 21 20 20 19 18 18 17 19 21 24 26 27 27
9 11 16 15 21 18 24 21 23 22 17 20 22 23 23 14 7 8 13 17 13 12 10 10 10 12 13 15 17 19 20 19 18 18 19 19 19 19 19 21 24 25 25 25
6 18 20 23 26 27 24 23 15 16 19 23 23 26 22 20 11 7 14 13 13 15 13 14 15 14 13 17 19 20 20 21 20 20 19 19 18 19 20 21 23 24 24 25
16 19 21 27 26 25 27 25 23 21 26 22 22 24 25 29 27 15 11 13 13 14 15 18 20 22 20 20 21 22 22 21 20 20 20 19 19 19 20 22 23 23 24 25
18 16 16 20 23 25 25 30 31 30 28 23 24 25 21 23 21 25 23 21 22 21 18 22 21 18 20 22 25 23 22 21 20 21 20 19 19 20 21 22 23 24 25 30
21 21 17 18 20 23 15 22 26 26 26 26 25 26 25 30 35 34 31 27 25 24 25 24 26 24 25 24 25 21 21 21 20 19 18 18 19 20 21 22 23 25 27 30
22 20 16 17 19 20 23 24 21 19 21 18 19 23 29 31 28 29 25 28 26 23 27 28 28 26 21 24 17 18 19 19 17 16 16 17 17 19 21 22 23 26 28 29
14 18 15 17 18 22 24 27 34 25 21 22 22 22 22 26 15 13 16 12 14 15 17 18 20 29 29 20 16 18 18 16 15 13 14 15 16 18 21 25 25 28 31 33
14 13 14 14 15 18 23 21 13 21 17 14 20 24 22 20 22 30 26 23 23 22 24 25 24 24 22 18 16 15 15 14 11 11 11 13 15 19 23 24 25 27 27 29
15 12 14 14 10 9 16 21 22 16 14 18 23 22 24 22 17 17 11 17 21 25 26 26 27 24 15 15 13 13 13 10 8 8 10 12 17 19 19 21 22 23 25 27
8 13 12 16 9 17 25 24 22 6 13 16 15 20 23 26 19 18 17 17 22 27 23 30 15 12 13 11 12 12 10 7 6 7 12 15 15 14 16 19 21 22 22 25
18 22 15 17 20 23 31 31 27 16 13 18 17 16 26 22 21 19 18 17 23 23 26 15 14 16 13 13 11 9 6 5 6 10 10 11 12 14 16 18 18 21 22 25
20 19 21 21 24 25 27 28 20 26 18 20 17 21 23 24 22 22 16 18 23 25 15 15 19 16 15 12 9 5 3 3 4 7 8 9 11 14 16 17 19 21 21 27
23 18 14 17 25 20 22 25 21 24 20 24 23 21 23 20 22 23 20 22 22 22 17 19 18 16 13 10 7 3 2 4 4 5 7 9 12 14 16 19 20 19 26 30
Wind_Direction
203 224 221 227 223 244 261 237 228 251 216 205 232 231 230 244 214 229 219 223 214 215 210 204 200 196 193 191 190 188 186 201 192 188 181 203 211 232 255 290 293 318 312 317
237 227 249 235 236 227 244 257 257 236 224 222 245 241 243 236 222 215 227 226 222 213 214 206 201 201 200 197 196 195 197 205 196 191 186 193 202 230 241 267 313 325 329 324
232 231 203 251 228 243 236 239 239 246 223 223 247 256 246 235 239 235 235 230 229 219 213 210 203 206 204 203 202 200 201 207 200 189 207 220 244 270 321 289 320 282 313 319
239 243 217 246 235 219 239 223 244 248 230 224 209 250 231 232 227 226 222 229 225 218 213 213 212 209 209 209 207 203 201 207 204 207 207 209 214 228 243 273 280 297 320 312
235 230 228 237 232 231 242 262 212 239 237 242 252 233 259 249 212 220 218 224 222 219 216 219 220 218 215 213 210 206 204 202 201 213 204 230 232 238 259 269 286 308 329 316
250 267 238 240 235 237 250 239 249 244 240 234 236 240 236 241 209 203 214 216 223 225 226 226 226 224 210 214 214 211 206 204 201 214 219 229 226 242 258 274 290 309 298 304
231 241 223 240 243 199 232 227 229 224 226 235 235 237 243 262 354 202 202 188 195 227 237 239 235 228 210 210 214 212 208 208 205 213 225 235 244 254 271 288 289 290 301 301
232 230 223 203 229 227 203 228 218 233 236 239 218 232 240 261 157 166 165 191 206 233 240 234 229 226 222 212 213 211 207 210 211 213 225 235 246 255 264 277 280 285 294 302
257 255 266 215 201 229 244 209 246 263 274 274 265 194 223 156 238 181 190 216 219 215 241 236 237 231 221 210 204 207 208 212 213 216 222 231 243 254 252 263 278 291 298 301
258 269 267 230 226 232 239 264 226 233 252 251 249 255 211 185 189 188 205 194 164 189 196 213 215 208 207 198 196 203 205 213 212 214 219 228 241 254 265 275 283 291 299 302
269 256 249 261 202 235 221 240 248 252 227 243 253 249 241 185 170 176 192 178 167 187 156 157 174 182 185 188 190 196 204 208 212 215 219 231 237 249 263 273 283 290 296 298
288 266 244 238 252 237 234 253 226 231 240 250 258 252 113 66 127 166 177 158 256 204 174 157 156 166 176 182 189 197 203 209 215 219 225 235 244 251 260 273 282 288 293 292
352 261 257 250 248 253 252 236 247 259 231 233 243 241 257 259 196 185 220 237 200 221 213 179 169 170 179 186 193 200 207 214 221 227 232 239 247 254 264 273 283 288 290 288
325 268 273 260 253 246 240 236 245 239 245 229 242 246 244 244 174 203 216 216 226 206 222 230 203 202 204 211 213 218 223 229 231 232 237 242 250 259 267 276 283 288 289 285
268 275 276 270 275 281 283 257 239 269 267 238 244 252 247 255 227 60 27 291 222 224 220 228 238 243 237 229 232 238 239 240 239 240 243 249 256 265 274 280 284 284 282 282
290 271 273 272 268 264 268 268 272 257 244 251 255 260 274 288 295 291 271 259 266 276 279 265 237 233 240 251 254 240 240 243 242 241 246 253 260 267 274 279 282 283 283 281
275 277 277 276 272 265 257 253 254 256 260 259 253 255 265 267 274 275 276 269 264 262 256 269 263 247 250 255 259 249 239 238 235 239 247 255 264 272 278 282 281 283 284 282
254 259 265 264 271 263 260 256 254 263 263 266 272 272 274 276 278 280 282 283 282 278 276 274 266 268 263 264 265 239 233 230 232 237 248 258 268 274 278 282 282 284 286 287
228 240 250 255 258 264 261 260 258 254 259 257 264 269 273 277 283 276 269 262 265 272 274 271 267 270 269 270 248 229 221 222 228 240 253 266 273 279 284 284 284 284 288 290
239 235 240 245 247 251 249 255 261 269 260 257 263 274 275 279 271 266 256 303 282 282 277 289 283 267 268 263 238 213 219 221 230 246 259 267 281 284 285 285 293 290 293 294
268 262 243 251 250 253 258 269 281 231 248 260 270 265 271 254 258 271 282 281 274 279 277 280 282 272 258 247 215 213 222 226 236 246 268 280 285 282 291 296 295 297 296 292
258 260 263 263 265 263 246 262 259 282 296 287 297 289 287 280 289 277 286 277 283 271 268 272 270 255 243 213 201 211 218 229 248 269 282 280 283 294 297 297 299 297 296 297
271 271 270 260 262 301 295 289 303 261 296 280 289 289 294 272 274 279 285 297 286 278 275 285 240 228 181 189 203 209 216 236 265 278 279 294 302 303 300 299 300 303 304 301
267 254 245 255 255 256 263 270 270 282 275 262 257 270 273 289 281 288 287 290 283 277 281 234 210 185 178 195 200 200 215 253 279 291 302 306 306 302 307 301 304 303 306 305
269 277 269 262 252 255 260 268 268 279 277 274 264 262 256 270 262 260 277 277 276 284 272 213 189 181 188 194 192 189 222 283 291 307 310 313 311 309 311 309 303 308 311 306
269 268 260 257 264 266 252 261 262 265 266 260 275 271 270 269 269 272 274 274 273 281 261 210 183 167 183 190 184 175 257 296 317 319 317 317 317 316 312 310 316 315 308 319